Temp
21 21 22 22 22 22 23 23 23 24 24 24 24 24 24 24 24 24 24 24 24 24 24 24 24 24 24 24 24 24 24 23 23 23 23 23 23 23 23 23 23 23
22 22 22 23 23 23 23 24 24 24 24 24 24 24 24 24 24 24 24 24 24 24 24 24 23 24 24 24 23 23 23 23 23 23 23 23 23 23 23 23 23 23
22 23 23 23 24 24 24 24 24 24 24 24 24 24 24 25 24 24 24 24 24 23 23 23 23 23 23 23 23 23 23 23 22 22 22 23 23 23 23 23 23 23
23 23 23 24 24 24 24 24 24 24 24 25 25 25 24 25 24 24 24 24 24 23 23 23 23 23 23 23 23 23 22 22 22 22 22 22 22 22 22 22 22 22
23 23 24 24 24 24 24 25 25 25 25 25 25 25 24 24 24 24 24 24 24 23 23 23 23 23 22 22 22 22 22 22 22 22 22 22 22 22 22 22 22 22
24 24 24 24 24 24 24 25 25 25 25 25 25 25 25 25 24 24 24 23 23 23 23 23 23 22 22 22 22 22 22 21 22 22 21 21 21 21 21 21 22 22
24 24 24 24 25 25 25 25 25 25 25 25 25 25 25 25 24 24 23 23 23 23 23 22 22 22 22 22 22 22 21 22 22 22 21 21 21 21 21 21 21 21
24 24 25 25 25 25 25 25 25 25 24 24 24 24 24 24 24 23 23 23 23 22 22 22 22 22 22 22 22 21 21 21 21 22 21 21 20 20 20 20 21 21
24 25 25 25 25 25 24 24 24 24 24 24 24 24 23 23 23 23 23 23 22 22 22 22 22 22 21 21 21 21 21 21 21 21 21 21 20 20 20 20 20 21
25 25 25 25 25 24 24 24 24 24 24 24 24 23 23 23 23 23 23 23 22 22 22 22 22 21 21 21 21 21 21 20 20 20 20 20 20 20 20 20 20 20
25 25 25 25 25 24 24 24 24 24 24 23 23 23 23 23 23 22 22 22 22 22 22 22 21 21 21 21 21 20 20 20 20 20 19 19 19 19 19 20 20 20
25 24 24 25 24 24 24 24 24 24 23 23 23 23 23 22 22 22 22 22 22 22 22 21 21 21 21 21 20 20 20 20 20 20 19 19 19 19 19 19 20 20
25 24 24 24 24 24 24 24 24 23 23 23 23 23 22 22 22 22 22 22 22 22 22 21 21 21 21 20 20 20 20 20 20 19 19 19 19 19 19 20 20 20
24 24 24 24 24 24 24 23 23 23 23 23 23 22 22 22 22 22 22 22 22 22 22 21 21 21 20 20 20 20 20 20 19 19 19 19 19 19 19 20 20 20
24 24 24 24 24 23 23 23 23 23 23 22 22 22 22 21 21 21 21 22 22 22 21 21 20 20 20 20 19 19 19 19 19 19 19 19 19 19 19 19 19 19
24 23 23 23 23 23 23 23 23 22 22 22 22 22 21 21 21 21 21 22 21 21 21 21 20 20 20 19 19 19 19 19 19 19 19 18 18 19 19 19 19 19
24 24 23 23 23 23 23 22 22 22 22 22 21 21 21 21 21 21 21 21 21 21 21 20 20 20 20 19 19 19 19 19 19 19 18 18 18 18 18 18 18 18
23 24 23 23 22 22 22 22 22 21 21 21 21 21 21 21 21 21 21 21 21 21 20 20 20 20 19 19 19 19 18 18 18 18 18 18 17 17 17 17 17 17
23 23 23 22 22 22 22 22 21 21 21 21 21 21 21 21 21 21 21 21 21 21 20 20 20 19 19 19 19 19 18 18 18 18 18 17 17 17 17 17 17 17
23 23 22 22 22 22 22 22 21 21 21 21 21 21 21 21 21 21 21 21 21 21 20 20 20 19 19 19 19 19 19 18 18 17 17 17 17 17 17 17 17 16
23 23 22 22 22 22 22 22 21 21 21 21 21 21 21 21 21 21 21 21 21 20 20 20 19 19 19 19 19 19 18 18 17 17 17 17 17 17 17 17 17 16
23 22 22 22 22 21 21 21 21 21 21 21 21 21 21 21 21 21 21 20 20 20 20 20 19 19 19 19 19 18 18 17 17 17 17 17 17 17 17 16 16 16
23 22 22 22 21 21 21 21 21 21 21 21 21 21 21 21 21 21 20 20 20 20 20 20 19 19 19 18 18 17 17 17 17 17 17 17 17 17 16 16 16 16
22 22 22 21 21 21 21 21 21 21 21 21 21 21 21 21 21 20 20 20 20 20 20 20 20 20 19 18 17 17 17 17 17 17 17 17 16 16 15 15 15 15
22 22 22 21 21 21 21 21 21 21 21 21 21 21 21 21 21 20 20 20 20 20 20 20 20 19 18 17 17 17 17 17 17 17 16 16 15 15 15 16 16 16
22 22 22 21 21 21 21 21 21 21 21 21 21 21 21 21 21 20 20 20 20 20 19 19 19 18 17 17 17 17 17 17 17 16 15 15 15 15 16 16 16 16
Height
802 803 804 804 805 806 807 807 807 808 808 809 810 811 812 812 812 813 813 813 813 813 813 813 813 813 813 812 812 811 811 810 810 809 809 808 807 806 806 805 804 804
802 802 803 804 805 806 806 807 807 808 809 810 810 811 812 812 813 813 813 813 813 813 814 814 814 814 814 813 812 812 811 811 810 809 809 808 807 806 806 805 804 804
802 803 803 804 804 805 806 807 808 808 808 809 810 811 812 812 813 813 813 813 813 814 814 814 814 814 814 813 813 812 811 811 810 809 809 808 807 807 806 805 804 803
803 803 804 804 805 806 808 808 807 808 808 808 809 811 812 812 813 812 813 813 814 814 814 814 814 814 814 813 812 812 811 811 810 809 809 808 807 806 805 805 804 803
803 804 804 805 806 808 809 808 808 808 808 809 810 811 812 812 813 813 813 813 814 814 814 814 814 814 814 813 813 812 812 811 811 810 809 808 808 807 805 805 804 803
805 805 806 807 808 809 810 809 809 810 810 811 811 812 813 812 813 813 813 814 814 814 814 814 814 814 814 814 813 813 812 812 812 811 810 809 808 807 806 805 804 803
807 807 807 808 809 809 810 811 811 811 811 812 812 813 813 813 813 813 814 814 815 815 814 814 815 814 815 814 814 814 813 813 813 812 811 810 809 808 807 806 805 804
809 809 809 809 809 810 811 812 812 812 812 813 813 814 814 814 814 814 814 815 815 815 814 815 815 815 815 815 814 815 814 814 813 812 811 810 809 808 807 806 806 804
810 810 810 810 810 811 812 812 813 813 813 813 814 814 815 815 815 815 815 815 815 815 815 815 815 815 815 815 815 815 815 814 813 812 811 810 809 808 807 806 805 804
812 812 811 811 812 813 813 813 814 814 814 814 815 815 815 815 815 815 815 815 815 815 815 816 816 816 816 816 816 816 815 815 814 813 812 811 809 808 807 806 805 805
813 813 813 813 813 814 814 814 815 815 815 815 815 816 815 815 815 815 816 816 816 816 816 816 816 817 817 817 817 816 816 815 814 813 812 810 809 808 807 806 805 804
814 814 815 814 814 815 815 815 815 815 816 816 816 816 816 816 816 816 816 816 816 816 816 817 817 817 817 817 817 817 816 816 814 813 811 810 809 808 807 806 805 804
815 815 816 815 815 815 816 816 816 816 816 816 817 816 816 817 816 817 816 816 817 817 817 817 817 818 818 818 818 817 816 816 814 812 811 810 808 807 806 806 805 804
816 817 816 816 816 816 816 817 816 817 817 817 817 817 817 817 817 817 817 817 817 817 817 817 817 818 818 818 818 817 816 815 814 813 811 809 808 807 806 805 804 803
817 817 817 817 817 816 817 817 817 817 817 817 817 817 817 817 817 817 817 817 818 817 817 817 818 818 818 818 817 817 816 815 814 812 811 809 808 807 806 805 804 803
818 818 817 817 817 817 817 817 817 817 817 817 817 817 817 817 817 817 817 818 818 817 818 817 818 818 818 818 817 816 816 815 813 812 811 809 808 807 806 805 804 803
818 818 818 818 817 818 818 817 818 817 817 817 817 817 817 817 817 817 817 818 817 817 818 818 818 818 818 817 817 816 815 814 813 812 810 809 808 807 806 804 803 802
818 818 818 818 818 818 818 818 818 817 817 817 817 817 817 816 817 817 817 817 817 817 818 818 818 818 817 817 816 815 815 813 812 811 809 809 808 806 805 804 802 801
818 818 818 819 818 818 818 817 818 817 817 817 816 816 817 816 817 817 816 816 816 817 818 818 818 818 817 816 815 814 814 813 812 811 810 809 808 806 805 803 801 800
818 818 818 819 818 818 818 817 818 817 817 817 816 816 817 817 817 816 816 816 816 817 818 817 817 817 816 816 815 814 813 812 811 811 810 809 807 805 804 802 800 798
818 818 818 818 818 818 818 817 818 817 817 817 817 817 817 816 816 816 816 817 817 817 817 817 817 816 816 815 814 813 812 811 811 810 809 807 806 804 802 800 799 797
817 818 818 818 818 818 818 818 817 817 817 817 817 817 817 817 817 817 817 818 818 817 817 816 816 815 815 814 813 812 812 811 810 808 807 806 804 802 801 799 798 796
817 817 818 818 818 818 818 818 817 817 818 818 818 818 818 818 818 818 818 818 817 817 817 816 816 815 814 814 813 812 811 810 808 807 805 804 802 801 800 798 796 795
817 817 818 818 818 818 818 818 817 818 818 818 818 818 818 818 818 818 818 818 817 817 816 816 815 814 814 813 812 811 810 808 807 806 804 803 801 800 798 797 795 794
817 817 818 818 818 818 818 819 818 818 819 819 819 819 818 818 818 818 818 817 817 817 816 815 815 814 813 812 811 810 809 808 806 805 803 802 800 799 797 795 794 792
816 817 818 818 819 819 819 819 819 819 819 819 819 819 819 818 818 818 818 817 817 816 816 815 814 813 813 812 811 810 809 807 806 804 803 801 800 798 796 794 792 790
Wind_Speed
11 12 11 11 10 8 7 7 6 6 6 6 6 8 8 7 8 7 7 9 8 7 5 5 4 3 2 2 1 3 4 4 4 4 4 6 9 9 10 10 9 10
11 10 9 9 8 7 7 7 7 6 6 5 4 6 7 6 7 8 8 9 9 7 5 2 4 4 3 1 1 2 3 4 5 5 7 8 9 8 8 9 9 10
10 10 9 9 9 9 8 5 5 5 4 5 6 7 6 6 8 8 9 10 10 7 5 5 6 5 4 3 2 3 5 6 7 6 6 7 9 8 9 9 9 10
9 9 9 9 9 7 3 0 2 5 5 6 9 10 8 9 10 10 10 11 11 9 8 8 7 6 5 4 3 4 6 6 7 7 5 7 9 10 10 10 10 10
10 10 9 7 6 3 3 6 12 16 16 15 17 17 16 16 16 15 14 13 12 10 8 7 6 6 4 3 3 4 6 7 7 8 7 8 10 10 10 9 9 9
10 8 6 5 3 3 8 17 20 20 20 20 19 18 16 15 13 13 12 11 9 8 7 7 5 5 4 3 3 4 7 9 9 8 8 9 11 11 11 10 9 9
7 6 5 4 2 5 14 21 19 18 19 17 17 15 13 12 11 10 10 9 9 9 8 7 5 5 4 4 5 6 8 10 11 9 8 8 9 10 11 11 10 9
6 5 3 2 4 11 18 20 18 18 18 16 15 14 11 10 9 9 9 9 9 9 8 6 5 5 4 5 6 7 8 10 11 10 9 8 8 8 9 10 9 8
5 3 2 5 12 17 19 18 17 17 15 14 14 12 10 9 8 8 7 7 7 7 6 4 3 4 5 5 5 6 8 9 9 10 9 9 8 8 8 9 9 8
5 5 9 16 20 19 17 16 16 14 12 12 11 9 8 7 7 6 6 6 7 6 4 3 3 4 4 4 5 6 8 8 8 9 9 8 8 8 8 8 8 7
6 8 14 19 18 17 17 15 14 12 11 9 8 7 7 6 6 6 5 5 6 5 3 3 3 2 2 4 5 7 7 7 9 9 8 7 7 8 8 8 8 8
7 8 13 17 15 15 15 13 11 10 9 7 6 5 4 4 5 5 4 4 5 4 4 4 3 2 4 5 6 7 6 7 9 9 8 7 6 7 7 6 7 9
6 7 13 15 13 12 11 10 9 8 6 5 3 2 2 3 4 4 4 4 4 4 4 3 3 5 5 6 6 6 8 9 10 9 8 7 6 7 7 7 8 10
7 10 14 12 10 10 9 8 7 6 4 3 1 1 2 2 2 3 5 5 4 4 4 4 6 7 5 5 5 8 10 11 11 10 9 8 8 8 9 9 10 11
9 12 12 10 9 8 7 6 5 4 3 2 1 1 2 2 2 4 6 6 4 2 3 6 9 8 5 4 6 9 12 13 12 9 8 9 9 8 9 10 10 11
11 11 9 8 8 6 5 4 3 3 2 1 1 1 3 3 2 3 6 6 3 1 4 10 10 8 6 6 6 8 12 15 15 11 8 8 10 10 10 11 11 12
11 9 7 7 6 4 4 3 2 2 0 1 1 1 1 2 2 4 5 4 2 2 7 12 10 6 6 6 7 9 13 17 17 13 9 8 10 11 12 13 13 14
10 8 8 7 6 5 4 3 2 1 2 2 0 1 1 2 2 3 2 1 1 5 10 11 7 5 5 7 8 11 15 18 18 16 12 11 11 12 13 14 15 15
9 9 9 8 6 5 4 3 3 2 2 1 1 2 4 4 3 3 2 2 4 8 10 8 5 4 4 7 9 12 16 17 17 15 14 14 14 14 14 15 15 15
11 11 10 9 7 5 5 4 3 2 2 1 2 5 5 5 5 4 5 5 6 8 8 5 4 3 4 7 10 13 15 14 14 13 12 13 15 16 16 15 14 13
12 12 11 9 7 6 5 4 2 1 1 3 5 6 6 7 6 6 7 7 7 7 5 4 3 3 5 8 11 12 11 11 12 12 12 14 16 18 17 15 13 12
13 12 11 9 7 6 4 2 0 2 4 6 6 6 7 8 9 8 8 8 6 5 4 5 4 4 7 9 8 8 8 9 11 12 14 16 19 19 16 14 13 12
13 12 10 9 7 5 2 2 4 6 6 6 6 7 8 10 10 9 9 8 7 5 5 6 6 7 8 6 5 6 7 9 12 14 17 19 19 18 16 14 14 14
12 11 10 9 7 4 3 6 8 8 6 6 7 8 10 9 8 8 7 7 7 6 5 6 8 8 5 3 4 6 8 11 15 17 18 19 18 17 16 16 15 15
11 10 9 8 6 5 7 9 8 7 7 8 9 8 7 7 6 7 7 7 7 6 5 6 8 6 2 2 5 8 11 14 17 17 17 17 18 18 18 17 17 17
10 9 7 6 6 8 10 8 7 8 9 9 7 5 5 6 6 6 6 6 6 5 5 7 7 4 1 3 7 10 14 15 15 15 16 16 17 18 19 19 20 22
Wind_Direction
160 161 167 176 179 180 186 195 197 198 199 193 184 188 189 181 182 180 174 177 174 160 136 105 114 135 131 164 271 328 345 345 341 350 344 330 329 326 325 329 332 338
149 151 155 164 166 164 166 168 171 180 193 205 200 189 187 186 192 194 187 189 192 194 199 154 131 136 111 106 355 11 11 7 10 0 350 349 343 334 336 341 337 336
143 146 148 149 149 146 147 161 191 212 232 234 210 195 200 202 203 210 210 207 202 192 188 164 137 125 98 95 94 61 40 21 15 1 345 354 354 341 339 339 333 330
138 142 143 143 144 139 129 214 194 169 162 170 166 162 166 162 159 167 178 180 168 145 136 134 127 124 116 108 99 64 48 38 31 22 6 0 355 344 341 339 338 339
134 136 138 137 134 113 88 111 125 131 131 135 140 138 134 132 130 132 140 145 142 132 125 124 119 120 116 96 82 60 49 46 36 25 18 14 9 6 7 2 357 357
137 136 130 125 107 82 123 128 124 123 122 125 133 135 135 135 129 123 125 127 127 123 121 124 120 111 102 83 71 52 39 32 17 3 0 10 19 24 24 17 8 3
140 131 124 134 118 114 131 130 122 119 120 123 132 139 143 142 132 121 119 120 120 117 117 122 120 109 100 76 58 46 34 26 14 356 339 350 12 21 21 17 10 3
138 127 128 145 133 132 131 127 121 123 126 129 133 137 139 135 128 120 118 121 117 112 113 113 109 106 87 56 55 54 40 30 22 8 344 332 344 358 8 12 7 1
138 123 137 141 137 138 133 125 125 129 131 133 131 130 128 121 116 109 107 113 113 108 107 99 96 100 75 55 62 54 39 33 27 19 3 337 323 332 347 357 1 1
147 114 125 135 137 137 133 128 131 133 134 134 128 124 120 106 94 85 86 101 112 111 102 90 103 104 77 66 64 47 39 35 22 11 2 341 321 319 326 339 354 356
152 122 127 134 136 134 133 133 135 134 132 129 123 117 109 95 88 87 92 108 117 116 103 91 103 107 89 84 66 48 39 26 9 356 347 338 329 325 323 330 343 343
152 134 135 136 137 136 136 138 137 136 130 122 119 117 111 103 94 91 105 124 124 119 104 92 109 132 112 88 64 48 34 12 1 353 343 339 340 340 337 333 335 336
161 154 147 142 142 141 141 141 138 134 128 119 118 123 127 118 91 86 110 123 122 112 93 94 135 141 113 87 63 45 29 14 7 0 353 353 354 353 354 349 342 340
165 158 151 148 149 147 143 142 136 130 123 124 139 153 158 151 93 109 131 125 110 89 82 120 151 143 118 88 64 42 29 22 18 15 12 9 3 359 357 351 344 340
162 155 153 153 155 151 145 141 135 131 128 139 166 177 190 190 145 144 151 142 126 87 108 146 148 136 113 86 60 42 33 27 18 13 12 6 0 356 351 348 346 343
166 161 161 164 165 159 153 151 145 142 141 168 207 210 209 207 191 178 171 164 162 159 152 152 144 127 111 96 71 47 33 22 11 2 354 354 357 356 350 347 345 342
175 180 184 180 177 176 175 179 176 165 23 329 288 250 215 207 199 186 183 191 232 206 168 158 144 119 101 82 65 46 27 16 10 5 353 346 352 354 350 346 340 335
185 194 199 193 188 193 201 208 209 230 326 338 352 61 114 125 128 162 189 259 249 186 172 158 132 104 89 62 49 38 22 14 14 14 13 8 2 357 352 345 338 333
191 197 201 202 201 207 215 224 244 281 333 356 60 94 112 104 74 65 69 83 152 168 165 146 112 101 85 52 39 29 17 11 11 16 22 23 15 5 355 346 341 339
194 197 200 204 209 220 232 250 279 308 354 45 102 109 97 62 45 77 105 114 134 149 148 126 102 104 73 42 27 17 8 6 8 11 14 14 10 4 355 347 345 344
196 198 199 205 212 226 247 272 298 346 67 111 116 100 65 48 64 105 119 118 121 126 121 95 94 89 40 19 12 6 2 2 3 3 2 1 357 355 351 345 343 343
201 201 202 208 216 224 243 275 188 131 130 127 110 77 64 81 96 102 102 101 99 94 81 71 67 35 8 1 2 3 357 354 355 355 356 352 348 347 347 345 343 343
202 204 206 209 214 221 215 145 137 134 128 112 89 81 90 98 98 92 85 75 65 59 59 54 31 6 358 351 354 359 352 351 354 353 350 346 344 347 348 347 346 344
206 210 212 207 206 207 166 139 132 124 111 97 97 104 100 90 81 80 71 55 50 49 38 24 7 357 351 335 344 355 356 356 353 349 347 347 348 350 351 350 349 348
209 214 216 210 200 170 144 136 127 115 110 108 109 105 87 67 61 71 67 53 47 39 19 10 3 355 333 316 347 358 357 355 351 349 351 353 353 353 353 355 355 353
209 216 219 207 180 151 138 133 123 121 122 117 106 88 67 62 72 80 69 46 38 34 30 25 18 17 23 358 1 359 354 353 355 359 360 359 357 355 353 354 355 355